Flag for Germany Weather past 2 weeks in Pfaffenhofen an der Ilm, Bavaria, Germany

Now
64 °F

Mild.


Feels Like: 64 °F
Forecast: 58 / 85 °F
Wind: No wind

Location: Ingolstadt Airport

Current Time: Aug 31, 2015 at 4:37:44 AM

Latest Report: Aug 31, 2015 at 3:20 AM


Visibility: 0 mi

Pressure: 30.01 "Hg

Humidity: 94%

Dew point: 63 °F

Location of Pfaffenhofen an der IlmLocation

Historic Weather in Pfaffenhofen an der Ilm — Graph

°F

Pfaffenhofen an der Ilm temperature yesterday

Maximum temperature yesterday: 91 °F (at 4:20 PM)
Minimum temperature yesterday: 63 °F (at 4:20 AM)
Average temperature yesterday: 77 °F

Past Weeks' High & Low Weather Summary

 TemperatureHumidityPressure
High91 °F (Aug 30, 4:20 PM)100% (Aug 16, 7:20 AM)30.30 "Hg (Aug 16, 7:20 AM)
Low46 °F (Aug 26, 4:20 AM)23% (Aug 26, 6:20 PM)29.71 "Hg (Aug 24, 3:20 PM)
Average66 °F71%30.04 "Hg
* Reported Aug 16 3:20 AM — Aug 31 3:20 AM, Pfaffenhofen an der Ilm, Weather by CustomWeather, © 2015

Note: Actual official high and low records may vary slightly from our data, if they occured in-between our weather recording intervals... More about our weather records

Advertising

Pfaffenhofen an der Ilm weather history for previous 24 hours

 ConditionsComfort  
Time TempWeatherWind HumidityBarometerVisibility
3:20 AM
Mon, Aug 31
64 °FMild.No wind94%30.01 "Hg0 mi
2:20 AM66 °FMild.2 mph94%30.04 "Hg1 mi
1:20 AM68 °FMild.2 mph88%30.04 "Hg1 mi
12:20 AM68 °FMild.3 mph88%30.04 "Hg4 mi
11:20 PM
Sun, Aug 30
70 °FMild.1 mph83%30.04 "Hg4 mi
10:20 PM73 °FMild.No wind83%30.04 "Hg5 mi
9:20 PM77 °FWarm.1 mph74%30.04 "HgN/A
8:20 PM82 °FWarm.2 mph55%30.04 "Hg5 mi
7:20 PM88 °FWarm.1 mph46%30.04 "HgN/A
6:20 PM91 °FPassing clouds.2 mph38%30.04 "HgN/A
5:52 PM91 °FPassing clouds.2 mph38%30.04 "HgN/A
5:20 PM91 °FHot.3 mph38%30.04 "HgN/A
4:20 PM91 °FHot.3 mph36%30.07 "HgN/A
3:20 PM90 °FHot.5 mph41%30.07 "HgN/A
2:20 PM90 °FHot.3 mph38%30.09 "HgN/A
1:20 PM88 °FWarm.5 mph43%30.12 "HgN/A
12:20 PM86 °FWarm.3 mph46%30.12 "HgN/A
11:20 AM82 °FWarm.5 mph51%30.12 "Hg6 mi
10:20 AM77 °FWarm.2 mph61%30.15 "Hg6 mi
9:20 AM73 °FMild.2 mph69%30.15 "Hg6 mi
8:20 AM68 °FPassing clouds.2 mph83%30.12 "HgN/A
7:20 AM63 °FFog.2 mph94%30.12 "HgN/A
6:20 AM63 °FMild.1 mph94%30.12 "Hg0 mi
5:20 AM63 °FMild.2 mph94%30.09 "Hg0 mi
4:20 AM63 °FMild.1 mph94%30.12 "Hg1 mi
Weather by CustomWeather, © 2015

See weather overviewHow to use our weather pages